Time,TemperatureF,DewpointF,PressureIn,WindDirection,WindDirectionDegrees,WindSpeedMPH,WindSpeedGustMPH,Humidity,HourlyPrecipIn,Conditions,Clouds,dailyrainin,SoftwareType,DateUTC
2013-03-22 16:42:00,38.7,10.6,29.50,North,0,0.0,0.0,31,0.00,,---,0.00,VWS V12.08,2013-03-22 20:42:00,
2013-03-22 17:04:00,39.0,11.0,29.53,North,0,0.0,0.0,31,0.00,,---,0.00,VWS V12.08,2013-03-22 21:04:00,
2013-03-22 17:05:00,39.0,11.0,29.53,North,0,0.0,0.0,31,0.00,,---,0.00,VWS V12.08,2013-03-22 21:05:00,
2013-03-22 17:10:00,38.7,10.6,29.53,North,0,0.0,0.0,31,0.00,,---,0.00,VWS V12.08,2013-03-22 21:10:00,
2013-03-22 17:15:00,38.5,10.5,29.53,North,0,0.0,0.0,31,0.00,,---,0.00,VWS V12.08,2013-03-22 21:15:00,
2013-03-22 17:20:00,38.7,10.6,29.53,North,0,0.0,0.0,31,0.00,,---,0.00,VWS V12.08,2013-03-22 21:20:00,
2013-03-22 17:25:00,38.5,10.5,29.53,North,0,0.0,0.0,31,0.00,,---,0.00,VWS V12.08,2013-03-22 21:25:00,
2013-03-22 17:30:00,38.5,10.5,29.53,North,0,0.0,0.0,31,0.00,,---,0.00,VWS V12.08,2013-03-22 21:30:00,
2013-03-22 17:35:00,38.3,10.3,29.53,North,0,0.0,0.0,31,0.00,,---,0.00,VWS V12.08,2013-03-22 21:35:00,
2013-03-22 17:40:00,38.1,10.2,29.53,North,0,0.0,0.0,31,0.00,,---,0.00,VWS V12.08,2013-03-22 21:40:00,
2013-03-22 17:45:00,38.1,10.2,29.53,North,0,0.0,0.0,31,0.00,,---,0.00,VWS V12.08,2013-03-22 21:45:00,
2013-03-22 17:50:00,37.9,10.0,29.53,North,0,0.0,0.0,31,0.00,,---,0.00,VWS V12.08,2013-03-22 21:50:00,
2013-03-22 17:55:00,37.9,10.7,29.53,North,0,0.0,0.0,32,0.00,,---,0.00,VWS V12.08,2013-03-22 21:55:00,
2013-03-22 18:00:00,37.9,10.7,29.53,North,0,0.0,0.0,32,0.00,,---,0.00,VWS V12.08,2013-03-22 22:00:00,
2013-03-22 18:04:00,37.8,10.6,29.53,North,0,0.0,0.0,32,0.00,,---,0.00,VWS V12.08,2013-03-22 22:04:00,
2013-03-22 18:09:00,37.6,10.4,29.53,North,0,0.0,0.0,32,0.00,,---,0.00,VWS V12.08,2013-03-22 22:09:00,
2013-03-22 18:14:00,37.6,10.4,29.53,North,0,0.0,0.0,32,0.00,,---,0.00,VWS V12.08,2013-03-22 22:14:00,
2013-03-22 18:19:00,37.4,10.2,29.53,North,0,0.0,0.0,32,0.00,,---,0.00,VWS V12.08,2013-03-22 22:19:00,
2013-03-22 18:24:00,37.4,10.2,29.53,North,0,0.0,0.0,32,0.00,,---,0.00,VWS V12.08,2013-03-22 22:24:00,
2013-03-22 18:29:00,37.2,10.8,29.53,North,0,0.0,0.0,33,0.00,,---,0.00,VWS V12.08,2013-03-22 22:29:00,
2013-03-22 18:34:00,37.2,10.8,29.53,North,0,0.0,0.0,33,0.00,,---,0.00,VWS V12.08,2013-03-22 22:34:00,
2013-03-22 18:39:00,37.0,11.3,29.53,North,0,0.0,0.0,34,0.00,,---,0.00,VWS V12.08,2013-03-22 22:39:00,
2013-03-22 18:44:00,37.0,11.3,29.53,North,0,0.0,0.0,34,0.00,,---,0.00,VWS V12.08,2013-03-22 22:44:00,
2013-03-22 18:49:00,36.9,11.1,29.56,North,0,0.0,0.0,34,0.00,,---,0.00,VWS V12.08,2013-03-22 22:49:00,
2013-03-22 18:55:00,36.9,11.1,29.56,North,0,0.0,0.0,34,0.00,,---,0.00,VWS V12.08,2013-03-22 22:55:00,
2013-03-22 18:59:00,36.7,11.0,29.56,North,0,0.0,0.0,34,0.00,,---,0.00,VWS V12.08,2013-03-22 22:59:00,
2013-03-22 19:05:00,36.7,11.0,29.56,North,0,0.0,0.0,34,0.00,,---,0.00,VWS V12.08,2013-03-22 23:05:00,
2013-03-22 19:10:00,36.5,10.8,29.56,North,0,0.0,0.0,34,0.00,,---,0.00,VWS V12.08,2013-03-22 23:10:00,
2013-03-22 19:15:00,36.5,10.8,29.56,North,0,0.0,0.0,34,0.00,,---,0.00,VWS V12.08,2013-03-22 23:15:00,
2013-03-22 19:20:00,36.3,10.6,29.56,North,0,0.0,0.0,34,0.00,,---,0.00,VWS V12.08,2013-03-22 23:20:00,
2013-03-22 19:25:00,36.3,10.6,29.56,North,0,0.0,0.0,34,0.00,,---,0.00,VWS V12.08,2013-03-22 23:25:00,
2013-03-22 19:30:00,36.3,10.6,29.56,North,0,0.0,0.0,34,0.00,,---,0.00,VWS V12.08,2013-03-22 23:30:00,
2013-03-22 19:35:00,36.1,10.5,29.56,North,0,0.0,0.0,34,0.00,,---,0.00,VWS V12.08,2013-03-22 23:35:00,
2013-03-22 19:40:00,36.1,10.5,29.56,North,0,0.0,0.0,34,0.00,,---,0.00,VWS V12.08,2013-03-22 23:40:00,
2013-03-22 19:45:00,36.0,10.3,29.56,North,0,0.0,0.0,34,0.00,,---,0.00,VWS V12.08,2013-03-22 23:45:00,
2013-03-22 19:49:00,35.8,10.2,29.59,North,0,0.0,0.0,34,0.00,,---,0.00,VWS V12.08,2013-03-22 23:49:00,
2013-03-22 19:55:00,35.8,10.2,29.59,North,0,0.0,0.0,34,0.00,,---,0.00,VWS V12.08,2013-03-22 23:55:00,
2013-03-22 20:00:00,35.8,10.2,29.59,North,0,0.0,0.0,34,0.00,,---,0.00,VWS V12.08,2013-03-23 00:00:00,
2013-03-22 20:05:00,35.6,10.0,29.59,North,0,0.0,0.0,34,0.00,,---,0.00,VWS V12.08,2013-03-23 00:05:00,
2013-03-22 20:10:00,35.6,10.0,29.59,North,0,0.0,0.0,34,0.00,,---,0.00,VWS V12.08,2013-03-23 00:10:00,
2013-03-22 20:15:00,35.6,10.0,29.59,North,0,0.0,0.0,34,0.00,,---,0.00,VWS V12.08,2013-03-23 00:15:00,
2013-03-22 20:19:00,35.4,10.5,29.59,North,0,0.0,0.0,35,0.00,,---,0.00,VWS V12.08,2013-03-23 00:19:00,
2013-03-22 20:25:00,35.4,10.5,29.59,North,0,0.0,0.0,35,0.00,,---,0.00,VWS V12.08,2013-03-23 00:25:00,
2013-03-22 20:30:00,35.4,11.1,29.59,North,0,0.0,0.0,36,0.00,,---,0.00,VWS V12.08,2013-03-23 00:30:00,
2013-03-22 20:35:00,35.2,11.0,29.59,North,0,0.0,0.0,36,0.00,,---,0.00,VWS V12.08,2013-03-23 00:35:00,
2013-03-22 20:40:00,35.2,11.0,29.59,North,0,0.0,0.0,36,0.00,,---,0.00,VWS V12.08,2013-03-23 00:40:00,
2013-03-22 20:45:00,35.2,11.6,29.59,North,0,0.0,0.0,37,0.00,,---,0.00,VWS V12.08,2013-03-23 00:45:00,
2013-03-22 20:50:00,35.1,11.4,29.59,North,0,0.0,0.0,37,0.00,,---,0.00,VWS V12.08,2013-03-23 00:50:00,
2013-03-22 20:55:00,35.1,11.4,29.59,North,0,0.0,0.0,37,0.00,,---,0.00,VWS V12.08,2013-03-23 00:55:00,
2013-03-22 21:00:00,35.1,11.4,29.59,North,0,0.0,0.0,37,0.00,,---,0.00,VWS V12.08,2013-03-23 01:00:00,
2013-03-22 21:05:00,35.1,11.4,29.59,North,0,0.0,0.0,37,0.00,,---,0.00,VWS V12.08,2013-03-23 01:05:00,
2013-03-22 21:10:00,35.1,11.4,29.59,North,0,0.0,0.0,37,0.00,,---,0.00,VWS V12.08,2013-03-23 01:10:00,
2013-03-22 21:15:00,35.1,12.0,29.59,North,0,0.0,0.0,38,0.00,,---,0.00,VWS V12.08,2013-03-23 01:15:00,
2013-03-22 21:20:00,34.9,11.9,29.59,North,0,0.0,0.0,38,0.00,,---,0.00,VWS V12.08,2013-03-23 01:20:00,
2013-03-22 21:25:00,34.9,11.9,29.59,North,0,0.0,0.0,38,0.00,,---,0.00,VWS V12.08,2013-03-23 01:25:00,
2013-03-22 21:30:00,34.9,11.9,29.59,North,0,0.0,0.0,38,0.00,,---,0.00,VWS V12.08,2013-03-23 01:30:00,
2013-03-22 21:35:00,34.9,12.4,29.59,North,0,0.0,0.0,39,0.00,,---,0.00,VWS V12.08,2013-03-23 01:35:00,
2013-03-22 21:40:00,34.7,12.3,29.59,North,0,0.0,0.0,39,0.00,,---,0.00,VWS V12.08,2013-03-23 01:40:00,
2013-03-22 21:45:00,34.9,12.4,29.59,North,0,0.0,0.0,39,0.00,,---,0.00,VWS V12.08,2013-03-23 01:45:00,
2013-03-22 21:50:00,34.9,13.0,29.62,North,0,0.0,0.0,40,0.00,,---,0.00,VWS V12.08,2013-03-23 01:50:00,
2013-03-22 21:55:00,34.9,13.0,29.62,North,0,0.0,0.0,40,0.00,,---,0.00,VWS V12.08,2013-03-23 01:55:00,
2013-03-22 22:00:00,34.9,13.0,29.62,North,0,0.0,0.0,40,0.00,,---,0.00,VWS V12.08,2013-03-23 02:00:00,
2013-03-22 22:05:00,34.9,13.0,29.62,North,0,0.0,0.0,40,0.00,,---,0.00,VWS V12.08,2013-03-23 02:05:00,
2013-03-22 22:10:00,34.9,13.0,29.62,North,0,0.0,0.0,40,0.00,,---,0.00,VWS V12.08,2013-03-23 02:10:00,
2013-03-22 22:15:00,34.9,13.0,29.62,North,0,0.0,0.0,40,0.00,,---,0.00,VWS V12.08,2013-03-23 02:15:00,
2013-03-22 22:20:00,34.9,13.0,29.59,North,0,0.0,0.0,40,0.00,,---,0.00,VWS V12.08,2013-03-23 02:20:00,
2013-03-22 22:25:00,35.1,13.2,29.59,North,0,0.0,0.0,40,0.00,,---,0.00,VWS V12.08,2013-03-23 02:25:00,
2013-03-22 22:30:00,34.9,13.0,29.59,North,0,0.0,0.0,40,0.00,,---,0.00,VWS V12.08,2013-03-23 02:30:00,
2013-03-22 22:35:00,34.9,13.0,29.62,North,0,0.0,0.0,40,0.00,,---,0.00,VWS V12.08,2013-03-23 02:35:00,